Regional Weather Roundup
Issued by NWS

Home | Current Version | Previous Version | Graphics & Text | Print | Product List | Glossary On
Versions: 1 2 3 4 5 6 7 8 9 10 11 12 13 14 15 16 17 18 19 20 21 22 23 24 25 26 27 28 29 30 31 32 33 34 35 36 37 38 39 40 41 42 43 44 45 46 47 48 49 50
000
ASUS45 KSLC 281910
RWRUT

UTAH REGIONAL WEATHER ROUNDUP
NATIONAL WEATHER SERVICE SALT LAKE CITY UT
100 PM MDT SUN MAY 28 2017

UTZ001>011-023>025-282000-

NORTHERN UTAH

CITY           SKY/WX    TMP DP  RH WIND       PRES   REMARKS
BRIGHAM CITY   SUNNY     72  30  21 NW5       30.24F
HILL AFB       SUNNY     69  32  25 N3        30.26F
LOGAN          SUNNY     69  40  34 N9        30.26F
OGDEN          SUNNY     70  36  28 VRB5      30.24F
SALT LAKE CITY MOSUNNY   74  37  26 NW6       30.23F
TOOELE VALLEY  SUNNY     70  39  32 N10       30.25F
WENDOVER       SUNNY     72  29  20 SE9       30.25S
HEBER CITY     SUNNY     70  27  19 W3        30.25F
WEST JORDAN    SUNNY     71  45  39 NE6       30.25F

$$

UTZ011>015-024>027-282000-

CENTRAL/NORTHEAST UTAH

CITY           SKY/WX    TMP DP  RH WIND       PRES   REMARKS
PROVO AIRPORT  SUNNY     68  37  32 W7        30.25S
MOAB/CANYONLAN SUNNY     76  22  13 E8        30.20F
DELTA          SUNNY     72  30  21 W3        30.24S
PRICE          SUNNY     69  25  19 S10       30.28F
ROOSEVELT      SUNNY     70  27  19 CALM      30.30F
VERNAL         SUNNY     68  27  21 VRB7      30.29F

$$

UTZ013>016-019>022-027-282000-

SOUTHERN UTAH

CITY           SKY/WX    TMP DP  RH WIND       PRES   REMARKS
BRYCE CANYON   MOSUNNY   65  25  22 S8G17     30.35S
CEDAR CITY     SUNNY     72  27  18 VRB6      30.23F
MILFORD        SUNNY     72  24  16 VRB5      30.23F
ST GEORGE      CLEAR     84  29  13 VRB6      30.08F
HANKSVILLE     SUNNY     77  25  14 NE3       30.24S
BLANDING       SUNNY     73  21  14 CALM      30.31F

$$

REGIONAL REPORTS     COLORADO/ARIZONA

CITY           SKY/WX    TMP DP  RH WIND       PRES   REMARKS
CRAIG, CO      SUNNY     64  31  28 NW8       30.33F
GRAND JUNCTION SUNNY     74  18  12 SE12G18   30.22F
RIFLE, CO      SUNNY     68  23  18 CALM      30.27F
MONTROSE, CO   SUNNY     67  24  19 VRB5      30.28F
CORTEZ, CO     SUNNY     70  17  13 MISG      30.25F
COLORADO CITY    N/A     82  27  13 N3        30.21F
PAGE, AZ       SUNNY     79  24  13 NE10      30.18F
GRAND CANYON   SUNNY     71  21  15 SE9G23    30.28F
KINGMAN, AZ    SUNNY     89  26  10 N9        30.06F
FLAGSTAFF, AZ  SUNNY     70  20  15 E12G20    30.28F

$$

REGIONAL REPORTS    NEVADA/IDAHO/WYOMING

CITY           SKY/WX    TMP DP  RH WIND       PRES   REMARKS
LAS VEGAS, NV  MOSUNNY   90  16   6 NE9       30.02F
ELY, NY        SUNNY     71  24  17 N9        30.29F
ELKO, NV       SUNNY     74  30  19 NE10      30.25F
POCATELLO, ID  MOSUNNY   71  43  36 NW9       30.27F
BURLEY, ID     SUNNY     73  36  25 NE3       30.24F
FORT BRIDGER,    N/A     63  27  25 N3        30.38S
EVANSTON, WY   SUNNY     60  30  32 S5        30.35F
ROCK SPRINGS,  SUNNY     62  27  26 VRB3      30.34F
KEMMERER, WY     N/A     57  27  30 SW6       30.37F

$$



USA.gov is the U.S. government's official web portal to all federal, state and local government web resources and services.